Vorticity
2 4 2 -0 8 3 12 7 -6 20 22 10 -4 -7 4 15 -11 -2 11 19 9 7 6 2 5 4 3 4 6 8 7 6 5 5 4 4 5 7 10 11 10 10 10 10 10 11 11 10 9
3 3 2 0 -3 2 10 9 -0 -17 10 -4 -2 2 -3 -4 5 -2 -16 13 9 10 7 5 2 3 3 5 8 7 6 5 5 4 4 5 7 10 11 10 11 10 9 8 7 7 8 9 10
1 2 5 -0 17 -4 6 19 3 14 7 -3 1 -2 0 1 4 -2 1 -3 5 11 8 6 4 3 4 6 6 6 5 4 4 4 5 7 9 10 9 8 7 7 7 6 7 7 7 7 8
0 8 5 -4 -6 9 -6 7 -1 41 11 4 -2 9 7 8 9 8 2 2 9 11 7 6 5 4 5 6 6 6 4 4 3 4 6 7 9 8 8 8 7 6 6 6 7 7 7 6 7
13 5 10 16 3 3 4 -12 19 30 12 6 -0 2 6 9 2 10 10 4 7 9 9 5 4 4 5 6 6 5 4 3 3 4 7 8 9 8 7 6 6 6 6 7 7 6 6 6 7
5 14 11 27 5 4 -1 -3 6 19 4 -3 -0 10 6 6 8 6 5 9 8 7 8 4 5 4 6 6 6 5 4 3 3 5 7 9 8 7 6 6 6 6 6 7 6 6 6 5 4
1 17 -3 -32 41 2 7 -5 -4 10 3 3 2 5 7 8 2 6 7 9 11 10 8 5 5 5 7 6 6 5 3 3 4 6 8 9 8 7 7 6 6 6 6 6 6 5 5 5 5
13 2 19 32 -12 32 22 -5 12 17 0 4 4 1 5 5 4 5 3 11 6 7 6 5 4 7 7 7 5 5 3 3 4 6 9 8 7 6 7 6 6 7 6 6 5 5 5 5 6
17 9 7 8 -6 14 34 23 7 4 8 8 4 7 12 8 9 4 4 9 4 8 6 5 5 8 7 6 5 5 3 4 5 7 8 7 7 7 7 7 7 6 6 6 6 7 8 8 8
11 5 7 12 23 -41 28 27 11 12 10 7 10 8 4 11 4 6 7 10 7 8 7 4 6 8 7 6 5 4 3 4 5 6 7 8 8 8 7 7 6 6 7 8 8 8 8 8 8
12 3 24 -1 14 26 3 13 23 17 14 6 5 5 10 11 12 9 7 5 4 8 7 4 6 8 7 6 5 4 4 5 5 7 8 9 9 7 6 6 5 5 5 5 6 6 7 7 7
6 17 13 -4 24 24 -27 12 15 12 17 0 2 10 17 2 6 8 7 5 8 11 8 4 7 7 7 6 5 4 4 5 6 7 9 8 7 6 4 4 4 5 5 5 5 5 5 5 6
8 19 16 16 -9 -4 40 -41 7 7 15 10 -1 5 7 5 5 7 6 6 8 9 6 5 8 8 6 6 5 5 4 5 5 7 8 8 6 5 4 4 3 3 3 3 4 3 4 4 5
3 -4 -2 11 12 10 17 -9 1 10 15 14 5 13 3 8 5 5 5 8 7 5 4 7 9 7 6 6 6 5 5 5 6 7 8 7 5 4 4 3 5 5 5 5 5 5 5 6 6
11 1 6 8 16 9 12 55 -21 -28 19 4 -3 8 14 14 8 5 8 12 7 4 5 9 9 7 6 6 5 5 5 5 6 7 7 6 5 4 4 4 5 5 4 5 4 5 5 6 6
11 6 2 0 6 7 7 -2 40 -31 -2 16 7 -2 2 6 10 5 6 7 8 6 6 8 7 7 7 6 5 6 5 6 5 6 6 6 5 4 3 4 4 4 5 4 3 2 3 4 5
17 1 6 6 6 8 11 11 2 -1 -60 3 15 1 5 7 6 6 6 8 8 6 7 7 6 7 7 5 6 6 5 6 5 6 6 6 5 4 3 3 4 5 5 4 2 2 0 0 2
-8 14 -7 14 21 14 8 -4 7 31 5 -25 -9 10 4 11 9 3 5 9 8 6 7 6 6 6 6 5 6 7 5 6 6 5 6 6 4 3 3 4 4 4 4 3 3 3 2 -0 1
5 9 28 -25 21 13 25 7 4 11 35 -1 -27 -8 10 8 11 7 5 8 7 6 6 6 5 6 6 6 7 7 6 7 6 6 6 5 4 3 4 4 4 5 5 4 4 3 2 2 1
-2 -8 12 -8 6 12 11 17 15 6 -4 25 -26 -23 17 13 8 8 6 7 7 7 7 6 6 6 6 6 5 5 5 5 6 5 5 5 4 4 4 4 4 4 4 5 5 3 2 4 5
17 9 0 -6 13 30 20 28 17 18 8 35 41 -2 -16 10 17 9 4 5 8 8 7 7 7 7 6 5 5 5 7 8 7 7 6 5 4 4 3 4 4 4 5 5 4 2 2 3 7
8 3 11 -3 -2 -0 21 18 28 19 16 29 20 -5 8 -8 6 8 11 10 10 10 7 6 6 7 6 5 6 8 8 10 9 6 5 5 4 4 3 3 4 4 5 5 4 2 2 5 8
15 6 34 -5 4 -37 4 -11 27 35 31 9 -2 11 -5 -10 -13 1 9 7 15 14 9 7 6 6 6 6 8 6 6 7 5 5 5 5 4 4 3 3 4 4 5 4 2 1 2 5 9
30 32 24 18 2 20 5 -39 50 7 9 18 15 -6 -2 -6 5 -8 -1 4 13 15 10 6 6 7 6 6 6 5 8 9 8 7 6 5 5 3 3 4 4 5 5 4 1 0 2 7 7
-1 20 12 15 14 18 59 8 -42 43 22 5 30 28 -7 -3 -1 3 0 4 5 15 10 6 6 7 6 5 5 8 11 9 6 5 5 5 4 4 4 4 4 5 5 3 1 1 3 8 6
4 -20 -5 4 8 4 16 13 14 20 -4 20 16 25 7 10 0 4 -4 -1 13 12 13 8 6 7 4 5 6 9 9 8 7 7 5 5 4 4 4 4 4 5 4 2 2 3 5 7 8
32 7 4 -3 3 6 7 10 27 47 26 16 19 26 13 7 11 -2 8 2 10 9 14 12 7 6 4 6 6 8 9 9 8 6 6 5 4 4 5 5 5 5 3 3 3 4 8 6 8
-2 16 -4 8 8 6 25 12 -49 30 31 3 -3 20 14 26 5 1 8 12 10 9 16 11 7 7 6 5 6 8 10 8 7 6 5 5 4 5 4 5 5 4 4 4 4 7 6 7 7
15 25 10 -1 -16 8 6 26 33 -8 13 3 8 18 6 9 27 23 21 11 12 10 13 9 8 6 4 4 6 9 9 8 7 6 5 5 5 5 5 5 4 4 4 4 6 6 7 7 7
20 6 -33 -25 23 -14 -6 13 6 62 10 45 2 9 11 19 14 11 16 12 10 9 12 9 7 5 4 5 7 10 8 7 6 5 5 5 5 5 5 5 4 5 4 5 5 6 7 7 8
Height
3155 3158 3160 3162 3168 3162 3159 3159 3161 3161 3161 3163 3164 3163 3163 3164 3166 3169 3165 3166 3167 3169 3171 3173 3174 3176 3176 3177 3177 3177 3177 3177 3177 3176 3175 3174 3173 3172 3170 3169 3168 3167 3166 3166 3165 3164 3163 3162 3161
3150 3153 3157 3157 3159 3156 3155 3157 3159 3162 3162 3162 3162 3162 3162 3162 3163 3164 3165 3165 3166 3167 3169 3171 3173 3175 3175 3176 3176 3177 3177 3177 3176 3176 3175 3173 3172 3170 3169 3168 3167 3166 3166 3165 3164 3163 3162 3161 3161
3145 3148 3152 3152 3149 3147 3152 3155 3157 3159 3159 3159 3159 3160 3160 3161 3161 3162 3163 3164 3165 3166 3167 3169 3172 3173 3174 3175 3176 3176 3176 3176 3175 3175 3173 3172 3170 3169 3168 3168 3167 3166 3166 3165 3164 3163 3162 3161 3160
3139 3143 3147 3143 3141 3145 3148 3151 3152 3152 3154 3155 3156 3158 3158 3159 3159 3161 3163 3162 3164 3164 3166 3168 3170 3172 3173 3174 3174 3175 3175 3175 3175 3174 3172 3171 3169 3168 3168 3168 3167 3166 3165 3165 3164 3163 3162 3161 3161
3130 3133 3138 3136 3135 3140 3146 3150 3149 3150 3150 3151 3153 3153 3154 3154 3157 3159 3160 3161 3162 3163 3165 3167 3169 3170 3171 3172 3173 3174 3174 3174 3174 3173 3172 3170 3169 3169 3168 3167 3167 3166 3165 3165 3164 3163 3163 3162 3161
3123 3125 3128 3129 3132 3136 3142 3146 3146 3148 3148 3149 3149 3150 3151 3151 3154 3155 3158 3158 3160 3162 3163 3165 3167 3168 3170 3171 3172 3173 3173 3173 3173 3172 3171 3170 3169 3169 3168 3167 3167 3166 3165 3165 3165 3164 3163 3162 3161
3117 3119 3118 3124 3128 3132 3135 3139 3141 3145 3146 3146 3145 3147 3148 3148 3150 3152 3155 3156 3158 3159 3161 3163 3166 3167 3168 3169 3170 3171 3172 3172 3172 3171 3171 3170 3169 3168 3168 3167 3167 3166 3166 3166 3165 3165 3163 3162 3161
3112 3114 3113 3117 3123 3129 3128 3134 3136 3139 3141 3142 3142 3142 3142 3144 3148 3149 3152 3154 3155 3157 3159 3161 3163 3165 3166 3167 3169 3170 3171 3172 3171 3171 3170 3170 3169 3168 3167 3167 3167 3167 3166 3166 3166 3165 3164 3162 3161
3106 3107 3106 3111 3114 3118 3121 3127 3130 3133 3135 3136 3138 3139 3140 3142 3144 3146 3148 3151 3152 3155 3156 3159 3161 3162 3164 3166 3167 3169 3170 3170 3171 3170 3170 3169 3169 3168 3168 3167 3167 3167 3167 3167 3166 3165 3164 3163 3161
3099 3097 3099 3105 3109 3111 3116 3117 3123 3128 3129 3132 3134 3135 3136 3138 3140 3144 3145 3148 3150 3152 3155 3156 3159 3161 3162 3164 3165 3167 3168 3169 3170 3169 3169 3169 3169 3168 3168 3168 3167 3167 3167 3166 3166 3164 3163 3162 3161
3093 3091 3096 3101 3105 3106 3108 3110 3113 3119 3125 3129 3131 3133 3133 3135 3137 3141 3143 3145 3149 3150 3153 3154 3156 3159 3160 3162 3164 3165 3167 3168 3168 3168 3168 3168 3168 3168 3168 3168 3167 3167 3167 3166 3165 3165 3163 3163 3162
3088 3089 3092 3095 3101 3105 3106 3105 3108 3112 3117 3121 3124 3130 3131 3132 3134 3136 3139 3141 3144 3148 3151 3152 3154 3156 3158 3160 3162 3164 3165 3166 3167 3167 3167 3167 3167 3167 3167 3167 3167 3167 3167 3166 3165 3164 3163 3162 3161
3084 3086 3088 3091 3095 3099 3104 3103 3108 3108 3112 3116 3120 3124 3127 3129 3132 3133 3136 3138 3140 3144 3148 3151 3152 3154 3156 3158 3161 3162 3163 3165 3166 3166 3166 3166 3167 3167 3167 3167 3167 3167 3166 3165 3165 3163 3162 3161 3160
3081 3083 3084 3086 3089 3095 3098 3104 3105 3106 3109 3110 3115 3120 3124 3126 3129 3130 3133 3135 3136 3139 3144 3148 3150 3151 3154 3157 3159 3160 3161 3163 3163 3164 3165 3165 3165 3166 3166 3166 3166 3165 3165 3164 3163 3163 3161 3159 3158
3078 3079 3078 3080 3084 3088 3099 3099 3096 3105 3103 3104 3108 3115 3120 3122 3124 3128 3132 3134 3134 3136 3140 3143 3146 3149 3151 3154 3157 3158 3159 3160 3161 3162 3163 3163 3164 3165 3165 3165 3165 3164 3164 3163 3162 3161 3159 3158 3156
3072 3074 3073 3073 3077 3081 3086 3080 3085 3099 3097 3100 3105 3108 3115 3118 3121 3124 3128 3130 3131 3132 3136 3139 3142 3146 3149 3151 3154 3155 3156 3158 3159 3160 3161 3161 3162 3163 3163 3163 3162 3162 3162 3161 3160 3160 3159 3157 3155
3064 3064 3064 3065 3068 3073 3074 3075 3081 3088 3092 3097 3099 3102 3109 3113 3115 3118 3122 3125 3127 3130 3132 3135 3138 3142 3145 3148 3150 3152 3153 3155 3156 3157 3158 3160 3161 3161 3161 3161 3160 3159 3159 3158 3158 3157 3156 3155 3153
3056 3059 3063 3064 3066 3066 3066 3068 3072 3081 3085 3093 3094 3097 3101 3106 3111 3114 3117 3121 3123 3126 3128 3131 3134 3138 3141 3143 3147 3148 3150 3151 3153 3154 3156 3157 3158 3158 3158 3158 3158 3157 3156 3155 3154 3153 3152 3150 3149
3055 3057 3057 3060 3062 3064 3064 3068 3071 3074 3076 3081 3085 3093 3095 3100 3105 3109 3111 3116 3118 3121 3124 3126 3129 3133 3136 3139 3143 3145 3147 3148 3150 3152 3153 3154 3154 3155 3155 3155 3154 3153 3153 3151 3150 3149 3146 3145 3144
3049 3051 3052 3056 3057 3059 3058 3058 3060 3065 3067 3072 3076 3086 3091 3094 3097 3101 3105 3108 3112 3116 3120 3122 3125 3129 3133 3136 3139 3141 3143 3144 3146 3148 3149 3150 3151 3151 3152 3151 3151 3149 3148 3147 3146 3144 3142 3138 3136
3041 3043 3045 3051 3052 3051 3054 3052 3054 3055 3060 3062 3070 3077 3085 3087 3091 3094 3098 3102 3106 3110 3114 3117 3121 3125 3128 3131 3134 3136 3138 3140 3142 3144 3145 3147 3148 3148 3148 3147 3147 3145 3144 3142 3141 3139 3137 3134 3129
3031 3037 3045 3048 3048 3048 3050 3045 3041 3045 3049 3054 3059 3065 3072 3079 3084 3087 3091 3095 3101 3105 3108 3111 3116 3119 3123 3127 3130 3133 3136 3138 3139 3139 3141 3143 3144 3144 3144 3143 3142 3141 3139 3137 3135 3133 3130 3128 3125
3025 3033 3036 3041 3042 3043 3042 3045 3029 3036 3041 3044 3045 3050 3055 3068 3075 3079 3084 3091 3096 3100 3103 3106 3110 3114 3118 3122 3126 3128 3130 3132 3134 3135 3137 3139 3140 3140 3140 3139 3138 3136 3135 3133 3130 3127 3124 3122 3119
3024 3027 3029 3034 3037 3035 3030 3033 3022 3023 3018 3025 3037 3042 3045 3052 3062 3071 3080 3085 3089 3093 3096 3099 3104 3108 3113 3117 3120 3122 3124 3127 3130 3132 3133 3135 3136 3136 3135 3134 3133 3131 3129 3128 3125 3122 3118 3115 3112
3018 3019 3021 3025 3028 3022 3023 3027 3014 3012 3016 3020 3027 3033 3039 3047 3055 3062 3068 3075 3081 3084 3089 3093 3098 3102 3107 3111 3115 3118 3120 3123 3125 3127 3129 3130 3131 3130 3130 3129 3127 3125 3124 3121 3119 3115 3112 3109 3106
3006 3010 3009 3015 3018 3015 3018 3011 2999 3002 3008 3015 3021 3028 3035 3042 3047 3053 3062 3068 3075 3078 3082 3087 3092 3097 3102 3106 3110 3113 3115 3118 3120 3122 3124 3125 3126 3125 3125 3124 3122 3120 3118 3115 3112 3109 3105 3102 3098
2999 3001 3007 3009 3009 3010 3004 3001 2996 2998 3005 3008 3011 3016 3024 3033 3038 3043 3053 3059 3066 3072 3076 3081 3087 3091 3096 3101 3104 3107 3110 3113 3115 3117 3118 3120 3120 3120 3119 3118 3116 3114 3112 3109 3105 3102 3097 3093 3090
2992 2997 3003 3003 3005 3006 2993 2991 2989 2990 2993 2999 3001 3007 3017 3024 3029 3035 3044 3051 3059 3066 3071 3075 3082 3086 3091 3095 3099 3101 3104 3107 3110 3111 3113 3114 3114 3114 3113 3112 3110 3108 3105 3101 3097 3093 3089 3084 3081
2986 2987 2991 2993 2996 2997 2995 2982 2980 2985 2988 2993 2998 3004 3009 3015 3021 3028 3036 3045 3054 3059 3063 3069 3074 3080 3085 3089 3094 3097 3099 3102 3104 3106 3107 3108 3108 3108 3106 3105 3103 3101 3098 3093 3089 3085 3080 3075 3071
2978 2980 2983 2987 2990 2990 2990 2982 2979 2979 2984 2988 2995 3000 3005 3011 3016 3022 3031 3038 3044 3051 3057 3062 3068 3074 3080 3085 3089 3092 3094 3096 3098 3100 3102 3103 3102 3101 3100 3098 3095 3093 3090 3085 3081 3076 3071 3066 3061